"Timestamp","TZ","WindDir_Mean (deg)","WindSpd_Mean (km/h)","WindSpd_Min (km/h)","WindSpd_Max (km/h)","Temp_Mean (deg)","RH_Mean (%)","MSLP_Mean (hPa)","Rain_Acc (mm)","Rain_Intensity (mm/h)","Hail_Acc (hits/cm2)","Hail_Intensity (hits/cm2hr)","Solar_Mean (W/m2)"
2018/04/30 00:00:00.015,n,237,2.16,1.8,3.24,16,79.8,1021.52,0,0,0,0,0.025253
2018/04/30 00:01:00.000,n,224,1.8,1.8,2.16,16,79.8,1021.52,0,0,0,0,0.027008
2018/04/30 00:02:00.000,n,241,1.44,1.08,1.44,16,80.1,1021.52,0,0,0,0,0.027008
2018/04/30 00:03:00.000,n,267,4.68,3.24,5.76,16,79.9,1021.52,0,0,0,0,0.026131
2018/04/30 00:04:00.003,n,256,2.88,2.52,3.24,16,79.8,1021.52,0,0,0,0,0.026131
2018/04/30 00:05:00.000,n,267,3.6,3.6,3.96,16,79.8,1021.52,0,0,0,0,0.026131
2018/04/30 00:06:00.000,n,253,6.84,6.48,7.2,16,79.7,1021.52,0,0,0,0,0.024414
2018/04/30 00:07:00.010,n,301,1.08,0.36,1.8,16,79.6,1021.42,0,0,0,0,0.026131
2018/04/30 00:08:00.007,n,253,0.72,0.72,1.08,16,79.7,1021.42,0,0,0,0,0.027008
2018/04/30 00:09:00.004,n,278,4.68,4.32,5.04,16,79.7,1021.42,0,0,0,0,0.024414
2018/04/30 00:10:00.001,n,243,3.6,2.52,4.32,16,79.6,1021.42,0,0,0,0,0.025253
2018/04/30 00:11:00.000,n,255,5.4,4.68,5.76,15.9,79.6,1021.42,0,0,0,0,0.025253
2018/04/30 00:12:00.000,n,238,5.04,4.32,5.04,15.9,79.8,1021.42,0,0,0,0,0.023499
2018/04/30 00:13:00.000,n,240,3.96,3.24,5.04,15.9,79.8,1021.42,0,0,0,0,0.030479
2018/04/30 00:14:00.003,n,250,3.96,2.88,5.76,15.9,79.7,1021.52,0,0,0,0,0.03746
2018/04/30 00:15:00.001,n,234,5.4,5.04,6.48,15.9,79.6,1021.52,0,0,0,0,0.042686
2018/04/30 00:16:00.000,n,246,7.56,6.48,9,15.9,79.5,1021.52,0,0,0,0,0.033989
2018/04/30 00:17:00.012,n,239,3.6,2.52,4.32,15.9,79.5,1021.52,0,0,0,0,0.035744
2018/04/30 00:18:00.009,n,267,6.48,5.04,7.56,15.9,79.5,1021.52,0,0,0,0,0.033112
2018/04/30 00:19:00.000,n,266,5.4,5.04,5.76,15.8,79.5,1021.42,0,0,0,0,0.039215
2018/04/30 00:20:00.000,n,250,3.6,2.16,5.04,15.8,79.5,1021.42,0,0,0,0,0.034828
2018/04/30 00:21:00.004,n,276,4.32,3.96,4.68,15.8,79.5,1021.42,0,0,0,0,0.036621
2018/04/30 00:22:00.002,n,257,6.48,6.12,6.84,15.8,79.5,1021.42,0,0,0,0,0.033989
2018/04/30 00:23:00.000,n,258,7.56,5.4,8.64,15.8,79.4,1021.42,0,0,0,0,0.032234
2018/04/30 00:24:00.000,n,231,6.84,5.04,7.92,15.8,79.4,1021.42,0,0,0,0,0.032234
2018/04/30 00:25:00.008,n,228,3.6,2.52,5.04,15.7,79.5,1021.42,0,0,0,0,0.030479
2018/04/30 00:26:00.005,n,277,5.76,4.68,6.48,15.7,79.4,1021.42,0,0,0,0,0.030479
2018/04/30 00:27:00.002,n,252,7.56,7.2,8.28,15.7,79.3,1021.42,0,0,0,0,0.02964
2018/04/30 00:28:00.000,n,251,8.28,7.2,8.64,15.7,79.3,1021.32,0,0,0,0,0.033112
2018/04/30 00:29:00.000,n,260,9,8.28,10.08,15.7,79.3,1021.32,0,0,0,0,0.031395
2018/04/30 00:30:00.000,n,249,7.2,6.48,7.56,15.7,79.1,1021.32,0,0,0,0,0.032234
2018/04/30 00:31:00.000,n,247,8.28,7.56,8.64,15.7,79.2,1021.32,0,0,0,0,0.031395
2018/04/30 00:32:00.003,n,254,5.76,5.04,6.48,15.7,79.1,1021.32,0,0,0,0,0.028763
2018/04/30 00:33:00.000,n,267,5.76,5.4,6.84,15.7,79.1,1021.32,0,0,0,0,0.024414
2018/04/30 00:34:00.000,n,256,5.76,5.04,7.2,15.7,79,1021.22,0,0,0,0,0.031395
2018/04/30 00:35:00.011,n,277,2.88,2.16,3.6,15.7,79,1021.22,0,0,0,0,0.02964
2018/04/30 00:36:00.008,n,270,4.32,3.6,4.68,15.7,79,1021.22,0,0,0,0,0.030479
2018/04/30 00:37:00.000,n,242,2.88,2.16,3.6,15.7,79,1021.22,0,0,0,0,0.02964
2018/04/30 00:38:00.001,n,260,7.92,7.2,8.64,15.7,78.9,1021.22,0,0,0,0,0.02964
2018/04/30 00:39:00.000,n,234,6.12,5.4,7.2,15.7,78.8,1021.22,0,0,0,0,0.030479
2018/04/30 00:40:00.000,n,245,3.24,2.88,3.6,15.6,78.8,1021.22,0,0,0,0,0.02964
2018/04/30 00:41:00.008,n,274,3.96,3.24,4.32,15.6,78.8,1021.22,0,0,0,0,0.02964
2018/04/30 00:42:00.006,n,248,5.76,5.04,6.48,15.6,78.6,1021.22,0,0,0,0,0.028763
2018/04/30 00:43:00.003,n,275,3.96,3.24,4.68,15.6,78.6,1021.22,0,0,0,0,0.033989
2018/04/30 00:44:00.000,n,256,4.68,4.32,5.04,15.6,78.5,1021.12,0,0,0,0,0.033989
2018/04/30 00:45:00.014,n,244,9.72,8.64,11.16,15.6,78.4,1021.12,0,0,0,0,0.030479
2018/04/30 00:46:00.000,n,264,7.92,7.2,8.64,15.6,78.4,1021.12,0,0,0,0,0.024414
2018/04/30 00:47:00.000,n,174,2.52,1.44,3.6,15.6,78.3,1021.12,0,0,0,0,0.02964
2018/04/30 00:48:00.005,n,253,5.04,4.68,5.4,15.7,78.5,1021.12,0,0,0,0,0.023537
2018/04/30 00:49:00.002,n,255,6.48,6.12,8.28,15.7,78.2,1021.12,0,0,0,0,0.026131
2018/04/30 00:50:00.000,n,249,6.12,4.68,7.2,15.7,78,1021.12,0,0,0,0,0.031395
2018/04/30 00:51:00.000,n,256,5.04,3.96,6.12,15.6,77.9,1021.12,0,0,0,0,0.020905
2018/04/30 00:52:00.009,n,268,5.4,4.32,7.92,15.6,77.9,1021.22,0,0,0,0,0.021782
2018/04/30 00:53:00.007,n,257,6.48,3.6,8.64,15.6,77.8,1021.12,0,0,0,0,0.027885
2018/04/30 00:54:00.004,n,284,3.24,2.52,4.68,15.6,77.8,1021.12,0,0,0,0,0.026131
2018/04/30 00:55:00.001,n,249,8.64,7.92,9.72,15.6,77.6,1021.22,0,0,0,0,0.027008
2018/04/30 00:56:00.000,n,256,11.52,10.440002,12.96,15.6,77.6,1021.12,0,0,0,0,0.032234
2018/04/30 00:57:00.000,n,268,7.56,7.2,8.28,15.6,77.5,1021.12,0,0,0,0,0.030479
2018/04/30 00:58:00.006,n,265,8.64,7.2,9.72,15.6,77.4,1021.12,0,0,0,0,0.033951
2018/04/30 00:59:00.003,n,254,9.36,7.56,10.08,15.6,77.2,1021.12,0,0,0,0,0.033951
2018/04/30 01:00:00.001,n,252,6.48,3.6,7.56,15.6,77.2,1021.12,0,0,0,0,0.036583
2018/04/30 01:01:00.000,n,266,11.16,9.72,12.96,15.6,77,1021.02,0,0,0,0,0.031357
2018/04/30 01:02:00.012,n,196,1.8,0.36,2.88,15.6,77.2,1021.12,0,0,0,0,0.031357
2018/04/30 01:03:00.009,n,270,10.440002,9.72,11.16,15.7,77.2,1021.02,0,0,0,0,0.034828
2018/04/30 01:04:00.000,n,270,10.08,7.92,11.16,15.7,77.2,1021.02,0,0,0,0,0.034828
2018/04/30 01:05:00.002,n,257,9.36,8.28,10.08,15.7,76.9,1021.02,0,0,0,0,0.033112
2018/04/30 01:06:00.000,n,300,2.88,0.72,5.76,15.7,76.8,1021.02,0,0,0,0,0.035706
2018/04/30 01:07:00.000,n,264,6.48,5.76,7.56,15.7,76.7,1021.02,0,0,0,0,0.034828
2018/04/30 01:08:00.000,n,265,4.32,3.96,5.04,15.7,76.7,1021.02,0,0,0,0,0.032234
2018/04/30 01:09:00.008,n,258,9.72,9.36,10.440002,15.7,76.6,1021.02,0,0,0,0,0.035706
2018/04/30 01:10:00.005,n,280,5.04,4.68,5.76,15.7,76.8,1021.02,0,0,0,0,0.035706
2018/04/30 01:11:00.002,n,268,6.12,5.4,7.2,15.7,76.6,1021.02,0,0,0,0,0.033951
2018/04/30 01:12:00.015,n,246,5.04,3.96,6.48,15.7,76.5,1021.12,0,0,0,0,0.033951
2018/04/30 01:13:00.000,n,275,6.48,5.76,6.84,15.7,76.5,1021.02,0,0,0,0,0.034828
2018/04/30 01:14:00.000,n,262,3.96,3.24,4.68,15.7,76.6,1021.02,0,0,0,0,0.032234
2018/04/30 01:15:00.000,n,288,2.52,0.72,5.4,15.6,76.6,1021.02,0,0,0,0,0.026131
2018/04/30 01:16:00.005,n,259,4.32,3.6,5.04,15.6,76.6,1021.02,0,0,0,0,0.034828
2018/04/30 01:17:00.001,n,296,1.8,1.44,2.88,15.6,76.7,1021.02,0,0,0,0,0.031357
2018/04/30 01:18:00.000,n,231,5.4,4.68,5.76,15.6,76.7,1021.02,0,0,0,0,0.035706
2018/04/30 01:19:00.012,n,237,3.6,2.88,3.96,15.6,76.8,1021.02,0,0,0,0,0.034828
2018/04/30 01:20:00.009,n,260,5.04,3.6,5.76,15.6,76.9,1021.02,0,0,0,0,0.029602
2018/04/30 01:21:00.006,n,268,7.92,5.04,11.88,15.6,77.3,1021.02,0,0,0,0,0.029602
2018/04/30 01:22:00.000,n,253,5.04,4.68,5.4,15.6,77.3,1021.02,0,0,0,0,0.029602
2018/04/30 01:23:00.002,n,225,3.6,2.88,4.68,15.6,77.3,1021.02,0,0,0,0,0.026131
2018/04/30 01:24:00.000,n,297,0.72,0.36,0.72,15.6,77.4,1021.02,0,0,0,0,0.027008
2018/04/30 01:25:00.000,n,258,3.6,3.24,3.96,15.6,77.7,1021.02,0,0,0,0,0.026131
2018/04/30 01:26:00.000,n,246,5.4,4.32,7.2,15.6,77.4,1021.02,0,0,0,0,0.031357
2018/04/30 01:27:00.006,n,256,8.64,8.28,9,15.6,77.2,1021.02,0,0,0,0,0.027008
2018/04/30 01:28:00.004,n,257,6.84,6.12,7.56,15.5,77.3,1021.02,0,0,0,0,0.026131
2018/04/30 01:29:00.001,n,277,6.84,5.4,7.2,15.5,77.2,1021.02,0,0,0,0,0.024414
2018/04/30 01:30:00.014,n,249,7.2,6.12,9,15.5,77.1,1021.02,0,0,0,0,0.026131
2018/04/30 01:31:00.000,n,239,6.48,5.76,7.56,15.5,77.2,1021.02,0,0,0,0,0.031357
2018/04/30 01:32:00.000,n,265,7.56,6.84,8.28,15.5,77,1020.92,0,0,0,0,0.029602
2018/04/30 01:33:00.005,n,249,3.96,2.88,5.04,15.5,77.1,1020.92,0,0,0,0,0.027885
2018/04/30 01:34:00.003,n,259,3.24,2.52,3.96,15.5,77.1,1020.92,0,0,0,0,0.023537
2018/04/30 01:35:00.001,n,287,8.28,6.84,10.08,15.5,77.3,1020.92,0,0,0,0,0.028763
2018/04/30 01:36:00.000,n,254,6.48,5.76,6.84,15.5,77,1020.92,0,0,0,0,0.029602
2018/04/30 01:37:00.011,n,258,7.92,7.56,8.64,15.5,77,1020.92,0,0,0,0,0.027885
2018/04/30 01:38:00.008,n,238,5.76,5.4,6.12,15.5,77.1,1020.92,0,0,0,0,0.027008
2018/04/30 01:39:00.005,n,215,4.68,3.6,5.4,15.4,77.1,1020.92,0,0,0,0,0.026131
2018/04/30 01:40:00.000,n,235,3.96,3.6,5.04,15.5,77.3,1020.92,0,0,0,0,0.031357
2018/04/30 01:41:00.000,n,282,3.96,2.88,5.4,15.5,77.6,1020.92,0,0,0,0,0.033951
2018/04/30 01:42:00.000,n,258,3.96,3.6,4.32,15.5,77.3,1020.92,0,0,0,0,0.035706
2018/04/30 01:43:00.000,n,256,8.28,6.84,9.72,15.5,76.9,1020.92,0,0,0,0,0.033951
2018/04/30 01:44:00.006,n,258,6.12,5.76,6.48,15.4,77,1020.92,0,0,0,0,0.035706
2018/04/30 01:45:00.003,n,250,7.92,6.84,10.08,15.4,77,1020.92,0,0,0,0,0.031357
2018/04/30 01:46:00.000,n,242,4.68,3.96,5.76,15.4,77,1020.92,0,0,0,0,0.034828
2018/04/30 01:47:00.014,n,256,5.76,3.96,7.2,15.4,77,1021.02,0,0,0,0,0.031357
2018/04/30 01:48:00.011,n,149,1.8,1.44,2.16,15.4,77,1021.02,0,0,0,0,0.040932
2018/04/30 01:49:00.000,n,275,7.56,6.12,9.36,15.4,77,1021.02,0,0,0,0,0.031357
2018/04/30 01:50:00.000,n,294,3.6,3.24,4.68,15.4,77,1020.92,0,0,0,0,0.031357
2018/04/30 01:51:00.002,n,264,6.12,4.68,7.2,15.4,77,1020.92,0,0,0,0,0.038338
2018/04/30 01:52:00.000,n,274,6.48,4.68,7.56,15.4,76.9,1020.92,0,0,0,0,0.039177
2018/04/30 01:53:00.000,n,278,6.12,5.4,6.84,15.4,76.9,1020.92,0,0,0,0,0.029602
2018/04/30 01:54:00.009,n,267,4.68,4.32,5.04,15.4,76.9,1020.92,0,0,0,0,0.036545
2018/04/30 01:55:00.006,n,273,5.4,4.32,6.12,15.4,76.9,1020.92,0,0,0,0,0.032196
2018/04/30 01:56:00.004,n,260,4.32,3.24,5.4,15.4,76.9,1020.92,0,0,0,0,0.031357
2018/04/30 01:57:00.002,n,244,5.4,5.04,6.12,15.4,76.8,1020.92,0,0,0,0,0.033112
2018/04/30 01:58:00.000,n,263,8.64,7.92,9.72,15.4,76.8,1020.92,0,0,0,0,0.027847
2018/04/30 01:59:00.000,n,271,9,7.92,9.72,15.4,76.8,1020.92,0,0,0,0,0.03746
2018/04/30 02:00:00.000,n,257,8.28,7.92,10.08,15.5,76.8,1020.92,0,0,0,0,0.034828
2018/04/30 02:01:00.005,n,249,7.2,5.76,7.92,15.5,76.5,1020.82,0,0,0,0,0.033951
2018/04/30 02:02:00.002,n,247,3.6,3.24,4.32,15.5,76.5,1020.82,0,0,0,0,0.033951
2018/04/30 02:03:00.000,n,260,7.92,7.56,8.64,15.5,76.3,1020.82,0,0,0,0,0.033951
2018/04/30 02:04:00.012,n,257,10.440002,10.08,11.16,15.5,76.2,1020.82,0,0,0,0,0.033112
2018/04/30 02:05:00.009,n,280,7.56,6.48,9.72,15.5,76.1,1020.72,0,0,0,0,0.035706
2018/04/30 02:06:00.007,n,252,10.8,9.72,11.88,15.5,76,1020.72,0,0,0,0,0.028763
2018/04/30 02:07:00.000,n,286,5.04,3.6,6.48,15.5,76.3,1020.72,0,0,0,0,0.033951
2018/04/30 02:08:00.000,n,217,4.68,3.96,5.04,15.5,76,1020.72,0,0,0,0,0.033951
2018/04/30 02:09:00.000,n,241,3.96,3.6,4.32,15.5,76,1020.72,0,0,0,0,0.031357
2018/04/30 02:10:00.000,n,245,2.52,1.8,3.6,15.5,76.1,1020.72,0,0,0,0,0.029602
2018/04/30 02:11:00.008,n,255,6.84,6.48,7.2,15.5,76,1020.72,0,0,0,0,0.027008
2018/04/30 02:12:00.005,n,266,8.28,7.56,9,15.5,75.9,1020.72,0,0,0,0,0.033112
2018/04/30 02:13:00.003,n,260,7.92,6.84,8.64,15.5,75.9,1020.72,0,0,0,0,0.031357
2018/04/30 02:14:00.002,n,259,7.92,6.84,10.08,15.5,75.9,1020.72,0,0,0,0,0.038338
2018/04/30 02:15:00.015,n,257,4.32,2.88,5.04,15.5,76,1020.72,0,0,0,0,0.029602
2018/04/30 02:16:00.000,n,263,3.6,2.88,3.96,15.5,76,1020.72,0,0,0,0,0.034828
2018/04/30 02:17:00.000,n,268,3.6,2.88,3.96,15.5,76.1,1020.72,0,0,0,0,0.031357
2018/04/30 02:18:00.000,n,271,5.4,4.32,6.12,15.5,76.4,1020.72,0,0,0,0,0.031357
2018/04/30 02:19:00.004,n,263,7.92,7.2,9,15.5,76.2,1020.72,0,0,0,0,0.035706
2018/04/30 02:20:00.002,n,255,5.4,3.96,6.48,15.5,76.3,1020.72,0,0,0,0,0.030479
2018/04/30 02:21:00.000,n,259,10.08,9,11.52,15.5,76.2,1020.72,0,0,0,0,0.033112
2018/04/30 02:22:00.000,n,250,7.92,6.12,10.08,15.5,76.2,1020.72,0,0,0,0,0.033112
2018/04/30 02:23:00.009,n,275,7.92,6.84,8.64,15.5,76.2,1020.72,0,0,0,0,0.032196
2018/04/30 02:24:00.006,n,256,6.84,5.76,9,15.5,76.3,1020.82,0,0,0,0,0.027847
2018/04/30 02:25:00.000,n,262,4.32,3.96,5.04,15.5,76.5,1020.82,0,0,0,0,0.032196
2018/04/30 02:26:00.000,n,279,5.04,2.88,6.12,15.5,76.4,1020.82,0,0,0,0,0.029602
2018/04/30 02:27:00.000,n,256,3.96,3.24,5.4,15.5,76.5,1020.82,0,0,0,0,0.03746
2018/04/30 02:28:00.000,n,270,9.36,7.56,10.440002,15.5,76.5,1020.82,0,0,0,0,0.027847
2018/04/30 02:29:00.008,n,258,7.56,6.48,8.64,15.5,76.4,1020.82,0,0,0,0,0.033951
2018/04/30 02:30:00.005,n,243,9,8.28,10.08,15.5,76.4,1020.82,0,0,0,0,0.028763
2018/04/30 02:31:00.002,n,276,4.68,3.96,5.4,15.5,76.4,1020.82,0,0,0,0,0.029602
2018/04/30 02:32:00.000,n,187,2.16,1.44,3.24,15.5,76.5,1020.82,0,0,0,0,0.033112
2018/04/30 02:33:00.013,n,263,6.48,5.76,6.84,15.5,76.5,1020.72,0,0,0,0,0.033951
2018/04/30 02:34:00.000,n,263,8.64,8.28,9.72,15.5,76.5,1020.72,0,0,0,0,0.035706
2018/04/30 02:35:00.000,n,254,10.08,9,11.52,15.5,76.4,1020.62,0,0,0,0,0.030479
2018/04/30 02:36:00.004,n,259,10.08,9.36,12.6,15.5,76.3,1020.62,0,0,0,0,0.028763
2018/04/30 02:37:00.001,n,262,11.52,10.8,12.6,15.5,76.1,1020.62,0,0,0,0,0.034828
2018/04/30 02:38:00.000,n,251,7.92,7.2,8.64,15.5,76.2,1020.62,0,0,0,0,0.027847
2018/04/30 02:39:00.000,n,248,4.68,2.52,6.84,15.5,76.4,1020.62,0,0,0,0,0.028763
2018/04/30 02:40:00.008,n,249,5.76,4.68,6.48,15.5,76.4,1020.52,0,0,0,0,0.027008
2018/04/30 02:41:00.006,n,277,7.92,6.48,10.08,15.5,76.6,1020.52,0,0,0,0,0.031357
2018/04/30 02:42:00.003,n,257,5.4,4.32,6.48,15.5,76.4,1020.52,0,0,0,0,0.027008
2018/04/30 02:43:00.000,n,253,6.84,5.76,8.28,15.4,76.3,1020.52,0,0,0,0,0.026131
2018/04/30 02:44:00.000,n,251,4.68,3.24,6.84,15.4,76.4,1020.52,0,0,0,0,0.026131
2018/04/30 02:45:00.000,n,263,4.32,3.96,4.68,15.4,76.4,1020.52,0,0,0,0,0.033112
2018/04/30 02:46:00.000,n,239,3.96,3.24,4.68,15.4,76.4,1020.52,0,0,0,0,0.030479
2018/04/30 02:47:00.006,n,256,6.48,5.4,7.2,15.4,76.5,1020.52,0,0,0,0,0.021782
2018/04/30 02:48:00.003,n,242,10.08,7.92,14.04,15.4,76.4,1020.52,0,0,0,0,0.027847
2018/04/30 02:49:00.000,n,250,5.4,4.68,5.76,15.4,76.5,1020.52,0,0,0,0,0.027847
2018/04/30 02:50:00.013,n,266,7.92,6.84,8.64,15.4,76.4,1020.52,0,0,0,0,0.030479
2018/04/30 02:51:00.010,n,251,5.76,4.68,6.84,15.4,76.4,1020.42,0,0,0,0,0.026131
2018/04/30 02:52:00.000,n,246,6.12,5.04,7.56,15.4,76.5,1020.42,0,0,0,0,0.027008
2018/04/30 02:53:00.000,n,260,7.2,6.48,8.28,15.4,76.4,1020.52,0,0,0,0,0.028763
2018/04/30 02:54:00.002,n,248,6.12,5.04,6.48,15.4,76.4,1020.42,0,0,0,0,0.026131
2018/04/30 02:55:00.000,n,255,5.4,5.04,5.76,15.4,76.4,1020.42,0,0,0,0,0.032196
2018/04/30 02:56:00.000,n,257,8.28,7.92,9.36,15.4,76.4,1020.42,0,0,0,0,0.027008
2018/04/30 02:57:00.000,n,253,4.68,3.96,5.76,15.4,76.5,1020.42,0,0,0,0,0.025253
2018/04/30 02:58:00.008,n,283,10.08,9,11.52,15.4,77,1020.42,0,0,0,0,0.029602
2018/04/30 02:59:00.005,n,240,5.04,4.32,5.76,15.4,76.5,1020.42,0,0,0,0,0.026131
2018/04/30 03:00:00.002,n,260,7.92,7.56,9.36,15.4,76.7,1020.42,0,0,0,0,0.028763
2018/04/30 03:01:00.000,n,249,6.48,5.76,7.56,15.4,76.8,1020.42,0,0,0,0,0.032196
2018/04/30 03:02:00.000,n,248,4.68,3.6,5.04,15.4,76.7,1020.42,0,0,0,0,0.024414
2018/04/30 03:03:00.000,n,253,2.88,2.52,3.24,15.4,76.6,1020.42,0,0,0,0,0.025253
2018/04/30 03:04:00.000,n,248,2.88,2.52,3.6,15.4,76.6,1020.42,0,0,0,0,0.027008
2018/04/30 03:05:00.005,n,231,6.84,5.04,8.64,15.4,76.6,1020.42,0,0,0,0,0.026131
2018/04/30 03:06:00.002,n,256,5.04,4.68,5.76,15.3,76.6,1020.42,0,0,0,0,0.028763
2018/04/30 03:07:00.000,n,254,2.52,1.8,3.24,15.3,76.6,1020.42,0,0,0,0,0.026131
2018/04/30 03:08:00.013,n,263,4.32,3.6,5.4,15.3,76.8,1020.42,0,0,0,0,0.025253
2018/04/30 03:09:00.010,n,269,6.84,5.76,7.92,15.3,76.7,1020.42,0,0,0,0,0.031357
2018/04/30 03:10:00.000,n,271,4.32,3.24,6.12,15.3,76.7,1020.42,0,0,0,0,0.027008
2018/04/30 03:11:00.000,n,251,7.92,6.12,9,15.3,76.7,1020.42,0,0,0,0,0.026131
2018/04/30 03:12:00.004,n,247,5.04,4.32,7.2,15.3,76.7,1020.42,0,0,0,0,0.027847
2018/04/30 03:13:00.001,n,232,3.6,1.8,4.68,15.3,76.8,1020.42,0,0,0,0,0.033112
2018/04/30 03:14:00.000,n,143,3.24,0.72,6.84,15.3,76.8,1020.42,0,0,0,0,0.024414
2018/04/30 03:15:00.000,n,263,5.04,4.32,6.12,15.3,76.9,1020.42,0,0,0,0,0.027008
2018/04/30 03:16:00.008,n,270,6.12,5.76,7.2,15.3,76.9,1020.42,0,0,0,0,0.026131
2018/04/30 03:17:00.005,n,286,3.6,2.88,4.68,15.3,77.1,1020.42,0,0,0,0,0.026131
2018/04/30 03:18:00.002,n,274,6.84,4.32,8.64,15.3,77,1020.42,0,0,0,0,0.024414
2018/04/30 03:19:00.000,n,263,6.12,6.12,6.12,15.3,77,1020.42,0,0,0,0,0.032196
2018/04/30 03:20:00.000,n,251,5.76,4.32,7.2,15.3,77.1,1020.42,0,0,0,0,0.028763
2018/04/30 03:21:00.000,n,261,6.84,6.12,7.56,15.3,77.1,1020.42,0,0,0,0,0.033951
2018/04/30 03:22:00.000,n,238,4.32,3.24,4.68,15.3,77.2,1020.42,0,0,0,0,0.024414
2018/04/30 03:23:00.004,n,234,3.6,2.16,5.04,15.3,77.2,1020.42,0,0,0,0,0.026131
2018/04/30 03:24:00.001,n,243,3.24,2.16,3.96,15.3,77.4,1020.42,0,0,0,0,0.023499
2018/04/30 03:25:00.000,n,252,6.84,6.12,8.28,15.3,77.4,1020.42,0,0,0,0,0.030479
2018/04/30 03:26:00.012,n,236,4.32,2.88,7.56,15.3,77.2,1020.42,0,0,0,0,0.030479
2018/04/30 03:27:00.010,n,277,5.04,1.8,7.92,15.3,77.2,1020.42,0,0,0,0,0.031357
2018/04/30 03:28:00.000,n,263,5.76,5.04,6.12,15.3,77.2,1020.42,0,0,0,0,0.029602
2018/04/30 03:29:00.003,n,265,6.84,5.4,7.56,15.3,77.3,1020.42,0,0,0,0,0.029602
2018/04/30 03:30:00.000,n,247,9.72,8.28,12.6,15.3,77.3,1020.42,0,0,0,0,0.030479
2018/04/30 03:31:00.000,n,287,7.56,6.12,9.36,15.3,77.4,1020.42,0,0,0,0,0.027847
2018/04/30 03:32:00.000,n,255,9.36,7.56,10.440002,15.2,77.3,1020.42,0,0,0,0,0.030479
2018/04/30 03:33:00.007,n,260,5.76,3.96,6.84,15.2,77.3,1020.52,0,0,0,0,0.027847
2018/04/30 03:34:00.004,n,241,6.12,5.76,7.2,15.2,77.3,1020.52,0,0,0,0,0.028763
2018/04/30 03:35:00.001,n,265,5.04,3.24,6.48,15.2,77.4,1020.52,0,0,0,0,0.028763
2018/04/30 03:36:00.014,n,266,6.84,6.12,7.56,15.2,77.5,1020.42,0,0,0,0,0.028763
2018/04/30 03:37:00.000,n,258,3.96,1.08,6.12,15.2,77.4,1020.52,0,0,0,0,0.027008
2018/04/30 03:38:00.000,n,234,6.12,4.68,8.28,15.2,77.5,1020.52,0,0,0,0,0.028763
2018/04/30 03:39:00.000,n,252,7.56,5.76,9.72,15.2,77.4,1020.52,0,0,0,0,0.025253
2018/04/30 03:40:00.002,n,265,9.72,8.64,10.8,15.2,77.3,1020.52,0,0,0,0,0.023499
2018/04/30 03:41:00.000,n,269,5.04,4.68,6.48,15.1,77.4,1020.52,0,0,0,0,0.025253
2018/04/30 03:42:00.000,n,248,5.04,4.32,5.76,15.1,77.5,1020.52,0,0,0,0,0.029602
2018/04/30 03:43:00.010,n,274,7.56,6.12,9,15.1,77.4,1020.52,0,0,0,0,0.023499
2018/04/30 03:44:00.007,n,261,4.32,3.6,4.68,15.1,77.5,1020.52,0,0,0,0,0.033112
2018/04/30 03:45:00.004,n,249,8.64,7.92,10.08,15.1,77.4,1020.52,0,0,0,0,0.026131
2018/04/30 03:46:00.001,n,264,6.48,5.76,7.2,15.1,77.6,1020.52,0,0,0,0,0.029602
2018/04/30 03:47:00.000,n,274,6.48,5.4,8.28,15.1,77.5,1020.42,0,0,0,0,0.023499
2018/04/30 03:48:00.000,n,234,5.76,5.4,6.48,15.1,77.5,1020.42,0,0,0,0,0.023499
2018/04/30 03:49:00.000,n,256,4.68,2.88,5.4,15.1,77.4,1020.42,0,0,0,0,0.022621
2018/04/30 03:50:00.007,n,238,5.76,5.04,6.84,15.1,77.3,1020.42,0,0,0,0,0.023499
2018/04/30 03:51:00.004,n,236,7.92,7.2,9,15.1,77.4,1020.32,0,0,0,0,0.021782
2018/04/30 03:52:00.002,n,257,6.48,5.76,6.84,15.1,77.3,1020.32,0,0,0,0,0.023499
2018/04/30 03:53:00.000,n,234,8.28,7.56,9.36,15.1,77.2,1020.32,0,0,0,0,0.024414
2018/04/30 03:54:00.014,n,267,5.04,3.6,6.48,15.1,77.3,1020.32,0,0,0,0,0.030479
2018/04/30 03:55:00.000,n,242,5.76,4.32,7.2,15.1,77.3,1020.22,0,0,0,0,0.020905
2018/04/30 03:56:00.000,n,257,7.92,6.84,9,15.1,77.2,1020.32,0,0,0,0,0.022621
2018/04/30 03:57:00.000,n,263,9,8.28,9.36,15.1,77,1020.32,0,0,0,0,0.023499
2018/04/30 03:58:00.002,n,243,6.12,5.4,7.56,15.2,77.1,1020.32,0,0,0,0,0.029602
2018/04/30 03:59:00.000,n,243,5.04,2.88,6.12,15.2,77.1,1020.32,0,0,0,0,0.031357
2018/04/30 04:00:00.000,n,270,8.28,7.2,9,15.2,77,1020.32,0,0,0,0,0.028763
2018/04/30 04:01:00.009,n,252,5.76,5.4,6.12,15.2,76.9,1020.32,0,0,0,0,0.027008
2018/04/30 04:02:00.006,n,257,7.2,5.76,8.28,15.2,76.8,1020.32,0,0,0,0,0.026131
2018/04/30 04:03:00.005,n,268,5.04,4.68,5.4,15.2,76.8,1020.32,0,0,0,0,0.026131
2018/04/30 04:04:00.000,n,257,3.24,2.52,3.6,15.2,76.8,1020.32,0,0,0,0,0.024414
2018/04/30 04:05:00.000,n,243,8.64,7.92,9.72,15.2,76.7,1020.32,0,0,0,0,0.027847
2018/04/30 04:06:00.000,n,252,3.96,3.24,4.68,15.3,76.6,1020.32,0,0,0,0,0.026131
2018/04/30 04:07:00.000,n,248,5.04,4.32,5.4,15.3,76.5,1020.32,0,0,0,0,0.026131
2018/04/30 04:08:00.007,n,235,5.04,4.32,6.12,15.3,76.5,1020.42,0,0,0,0,0.027847
2018/04/30 04:09:00.004,n,258,5.4,4.32,6.48,15.3,76.7,1020.32,0,0,0,0,0.027008
2018/04/30 04:10:00.002,n,266,6.12,5.4,7.2,15.3,76.7,1020.32,0,0,0,0,0.040054
2018/04/30 04:11:00.014,n,259,3.96,3.24,5.04,15.3,76.4,1020.32,0,0,0,0,0.035706
2018/04/30 04:12:00.012,n,260,2.88,2.16,3.6,15.3,76.4,1020.32,0,0,0,0,0.034828
2018/04/30 04:13:00.000,n,274,5.04,3.96,6.12,15.3,76.3,1020.32,0,0,0,0,0.036583
2018/04/30 04:14:00.000,n,260,8.64,7.2,9.72,15.3,76.2,1020.32,0,0,0,0,0.039215
2018/04/30 04:15:00.002,n,244,4.32,1.8,6.84,15.3,76.2,1020.22,0,0,0,0,0.036583
2018/04/30 04:16:00.000,n,270,7.56,6.84,8.64,15.3,76.2,1020.22,0,0,0,0,0.034828
2018/04/30 04:17:00.000,n,237,7.56,5.4,9,15.3,76.2,1020.22,0,0,0,0,0.037422
2018/04/30 04:18:00.009,n,247,5.4,4.32,6.12,15.3,76.2,1020.22,0,0,0,0,0.035706
2018/04/30 04:19:00.007,n,261,5.04,4.32,5.4,15.3,76.2,1020.22,0,0,0,0,0.033951
2018/04/30 04:20:00.004,n,246,5.04,4.68,5.76,15.4,76.2,1020.22,0,0,0,0,0.0383
2018/04/30 04:21:00.001,n,252,8.28,7.92,8.64,15.4,76.1,1020.22,0,0,0,0,0.036583
2018/04/30 04:22:00.000,n,245,5.4,4.32,7.2,15.4,76,1020.22,0,0,0,0,0.033073
2018/04/30 04:23:00.000,n,259,3.24,2.52,3.96,15.4,75.9,1020.22,0,0,0,0,0.033951
2018/04/30 04:24:00.000,n,268,3.96,3.24,4.32,15.4,75.9,1020.22,0,0,0,0,0.036583
2018/04/30 04:25:00.007,n,270,5.76,5.04,6.84,15.4,75.8,1020.22,0,0,0,0,0.034828
2018/04/30 04:26:00.004,n,277,3.24,2.88,3.6,15.4,75.8,1020.22,0,0,0,0,0.033073
2018/04/30 04:27:00.001,n,255,4.32,4.32,5.04,15.4,75.8,1020.22,0,0,0,0,0.036583
2018/04/30 04:28:00.000,n,259,6.12,5.4,6.48,15.4,75.8,1020.22,0,0,0,0,0.036583
2018/04/30 04:29:00.012,n,259,5.4,4.32,7.2,15.4,75.8,1020.22,0,0,0,0,0.037422
2018/04/30 04:30:00.009,n,251,7.2,6.48,8.64,15.4,75.7,1020.22,0,0,0,0,0.035706
2018/04/30 04:31:00.000,n,270,6.12,5.4,7.2,15.4,75.7,1020.22,0,0,0,0,0.033951
2018/04/30 04:32:00.003,n,230,10.440002,9.36,11.16,15.4,75.6,1020.12,0,0,0,0,0.034828
2018/04/30 04:33:00.000,n,255,5.76,5.04,6.84,15.5,75.7,1020.12,0,0,0,0,0.036583
2018/04/30 04:34:00.000,n,236,7.92,6.84,8.64,15.5,75.6,1020.22,0,0,0,0,0.040054
2018/04/30 04:35:00.000,n,246,8.64,8.28,9,15.5,75.4,1020.12,0,0,0,0,0.040054
2018/04/30 04:36:00.008,n,267,6.12,3.96,7.56,15.5,75.3,1020.12,0,0,0,0,0.033951
2018/04/30 04:37:00.005,n,252,5.04,4.68,5.4,15.5,75.3,1020.12,0,0,0,0,0.039215
2018/04/30 04:38:00.002,n,240,9.72,7.92,10.440002,15.5,75.3,1020.22,0,0,0,0,0.037422
2018/04/30 04:39:00.001,n,196,2.16,1.8,3.24,15.5,75.3,1020.22,0,0,0,0,0.0383
2018/04/30 04:40:00.000,n,282,5.4,3.96,6.48,15.5,75.3,1020.22,0,0,0,0,0.039215
2018/04/30 04:41:00.000,n,253,2.52,1.8,2.88,15.5,75.3,1020.22,0,0,0,0,0.034828
2018/04/30 04:42:00.000,n,257,3.6,3.24,3.96,15.5,75.3,1020.32,0,0,0,0,0.035706
2018/04/30 04:43:00.000,n,321,1.44,0.36,2.52,15.5,75.6,1020.22,0,0,0,0,0.040932
2018/04/30 04:44:00.005,n,278,1.08,0.72,1.8,15.5,75.5,1020.22,0,0,0,0,0.036583
2018/04/30 04:45:00.002,n,299,4.68,3.24,6.48,15.5,76,1020.22,0,0,0,0,0.036583
2018/04/30 04:46:00.000,n,256,3.24,2.52,3.6,15.5,75.9,1020.22,0,0,0,0,0.037422
2018/04/30 04:47:00.013,n,200,6.84,6.12,7.56,15.5,75.8,1020.22,0,0,0,0,0.033951
2018/04/30 04:48:00.010,n,266,6.48,5.04,7.56,15.5,75.9,1020.22,0,0,0,0,0.033951
2018/04/30 04:49:00.000,n,261,6.48,5.76,6.84,15.5,75.7,1020.22,0,0,0,0,0.036583
2018/04/30 04:50:00.000,n,261,4.68,2.52,7.2,15.5,75.8,1020.32,0,0,0,0,0.04528
2018/04/30 04:51:00.000,n,257,6.12,6.12,6.48,15.5,75.8,1020.32,0,0,0,0,0.040932
2018/04/30 04:52:00.000,n,227,2.16,1.8,2.88,15.5,75.9,1020.32,0,0,0,0,0.034828
2018/04/30 04:53:00.000,n,264,1.44,0.36,2.16,15.5,75.9,1020.32,0,0,0,0,0.040932
2018/04/30 04:54:00.009,n,268,4.68,3.96,5.04,15.5,76.1,1020.32,0,0,0,0,0.0383